{"data":{"norad_id":48047,"epoch":"2026-09-18T21:03:40.752864Z","epoch_age_seconds":158411,"freshness":"FRESH","line1":"1 48047U 21025F   26261.87755501  .00000314  00000+0  82387-3 0  9996","line2":"2 48047  87.8926 301.5804 0001936 101.9814 258.1532 13.13470225265848","mean_motion":13.13470225,"eccentricity":0.0001936,"inclination_deg":87.8926,"raan_deg":301.5804,"arg_perigee_deg":101.9814,"mean_anomaly_deg":258.1532,"bstar":0.00082387,"rev_number":26584,"period_min":109.63324273301,"perigee_km":1208.2955156151,"apogee_km":1211.2335510888,"semimajor_km":7587.901533352,"source":"CELESTRAK","updated_at":"2026-09-20T09:00:44.584613Z"}}